Regional Weather Roundup
Issued by NWS

Home | Current Version | Previous Version | Text Only | Print | Product List | Glossary Off
Versions: 1 2 3 4 5 6 7 8 9 10 11 12 13 14 15 16 17 18 19 20 21 22 23 24 25 26 27 28 29 30 31 32 33 34 35 36 37 38 39 40 41 42 43 44 45 46 47 48 49 50

000
ASUS45 KABQ 241610
RWRNM
WEATHER ROUNDUP FOR NEW MEXICO
NATIONAL WEATHER SERVICE ALBUQUERQUE NM
1000 AM MDT THU JUL 24 2014

NOTE: "FAIR" MEANS FEW OR NO CLOUDS BELOW 12,000 FEET AGL WITH NO
       SIGNIFICANT WEATHER OR OBSTRUCTIONS TO VISION.

      THIS PRODUCT IS RELEASED AS TWO VERSIONS.  ONE VERSION NEAR
      THE TOP OF THE HOUR CONTAINING PRELIMINARY DATA FROM ALBUQUERQUE
      AND OTHER STATIONS.  A FINAL VERSION WITH ADDITIONAL DATA IS
      ISSUED ABOUT 10 MINUTES AFTER THE HOUR.

NMZ501-503-504-510>518-241700-
NORTHWEST PLATEAU/NORTHCENTRAL MOUNTAINS

CITY           SKY/WX    TMP DP  RH WIND       PRES   REMARKS
FARMINGTON     SUNNY     81  51  35 E8        30.29F
LOS ALAMOS     SUNNY     71  51  48 E5        30.45F
SANTA FE       SUNNY     75  50  41 CALM      30.38F
TAOS           SUNNY     72  46  40 SW5       30.46F
ANGEL FIRE     FAIR      69  47  45 W8G20     30.53S

$$
NMZ402-403-502-505>509-241700-
WESTCENTRAL MOUNTAINS/SOUTHWEST MOUNTAINS

CITY           SKY/WX    TMP DP  RH WIND       PRES   REMARKS
GALLUP         MOSUNNY   79  47  32 SW15      30.37F
GRANTS         SUNNY     78  49  36 SE6       30.40F
SILVER CITY    SUNNY     81  48  32 SE20G25   30.33S

$$
NMZ407-409-411-412-241700-
SOUTHERN DESERTS

CITY           SKY/WX    TMP DP  RH WIND       PRES   REMARKS
LORDSBURG      FAIR      86  46  25 E14G20    30.21S
DEMING         SUNNY     83  52  34 E9        30.23F
LAS CRUCES     SUNNY     85  50  30 SE8       30.26S
HOLLOMAN AFB   MOSUNNY   88  54  31 S8        30.23S
ALAMOGORDO     MOSUNNY   86  54  32 SW9       30.24F
T OR C         SUNNY     83  47  28 CALM      30.28S

$$
NMZ519>523-241700-
CENTRAL VALLEYS/CENTRAL HIGHLANDS

CITY           SKY/WX    TMP DP  RH WIND       PRES   REMARKS
ALBUQUERQUE    MOSUNNY   80  49  33 SW5       30.33F
DOUBLE EAGLE   SUNNY     77  52  41 VRB6      30.37S
MORIARTY ARPT  FAIR      77  48  36 S8        30.40F
CLINES CORNERS SUNNY     77  45  32 W9        30.43F
BELEN          FAIR      79  50  35 SE3       30.32F
SOCORRO        FAIR      83  46  27 SE7       30.29F

$$
NMZ524>526-539-540-241700-
SOUTHCENTRAL MOUNTAINS

CITY           SKY/WX    TMP DP  RH WIND       PRES   REMARKS
RUIDOSO        SUNNY     73  50  43 MISG      30.46S

$$
NMZ527>531-241700-
NORTHEAST HIGHLANDS/NORTHEAST PLAINS

CITY           SKY/WX    TMP DP  RH WIND       PRES   REMARKS
LAS VEGAS      SUNNY     78  45  30 SW17G23   30.41F
RATON          NOT AVBL
CLAYTON        SUNNY     86  50  28 SW22G29   30.25S

$$
NMZ532>537-241700-
EASTCENTRAL PLAINS

CITY           SKY/WX    TMP DP  RH WIND       PRES   REMARKS
TUCUMCARI      SUNNY     86  58  38 W7        30.21F
CANNON AFB     SUNNY     82  60  48 SW10      30.26F
CLOVIS AIRPORT NOT AVBL

$$
NMZ028-029-538-241700-
SOUTHEAST PLAINS

CITY           SKY/WX    TMP DP  RH WIND       PRES   REMARKS
ROSWELL        SUNNY     86  56  35 VRB3      30.21F
ARTESIA        SUNNY     84  55  37 CALM      30.21F
CARLSBAD       SUNNY     88  57  34 NE5       30.18S
HOBBS          SUNNY     86  57  37 S7        30.22F


$$


USA.gov is the U.S. government's official web portal to all federal, state and local government web resources and services.